Regional Weather Roundup
Issued by NWS Burlington, VT

Home | Current Version | Previous Version | Text Only | Print | Product List | Glossary On
Versions: 1 2 3 4 5 6 7 8 9 10 11 12 13 14 15 16 17 18 19 20 21 22 23 24 25 26 27 28 29 30 31 32 33 34 35 36 37 38 39 40 41 42 43 44 45 46 47 48 49 50
000
ASUS41 KBTV 210730
RWRBTV
VERMONT REGIONAL WEATHER ROUNDUP
NATIONAL WEATHER SERVICE BURLINGTON VT
300 AM EDT SUN SEP 21 2014

NOTE: "FAIR" INDICATES FEW OR NO CLOUDS BELOW 12,000 FEET WITH NO
SIGNIFICANT WEATHER AND/OR OBSTRUCTIONS TO VISIBILITY.

* THESE REPORTS ARE NOT UNDER NWS QUALITY CONTROL AND/OR DO NOT
  REPORT WEATHER SUCH AS PRECIPITATION AND FOG.

VTZ001>019-210800-
_____VERMONT_____


CITY           SKY/WX    TMP DP  RH WIND       PRES   REMARKS
BURLINGTON     MOSUNNY   66  54  65 S20G28    29.86F
MONTPELIER     MOSUNNY   55  54  96 SE5       29.97F
MORRISVILLE    CLOUDY    64  55  72 E12       29.90F
ST. JOHNSBURY*   N/A     60  53  77 MISG      29.93F
MIDDLEBURY*    CLOUDY    66  55  67 S10G24    29.91F
RUTLAND*       MOSUNNY   55  52  88 SE8       29.94F
SPRINGFIELD    SUNNY     53  52  96 VRB3      29.98F
HIGHGATE*      FAIR      65  56  72 S14G22    29.81F
NEWPORT*       FAIR      59  55  89 S9G16     29.89F
BENNINGTON     CLOUDY    59  55  87 CALM      29.97F
SUTTON*          N/A     57 N/A N/A MISG        N/A
GALLUP MILLS*    N/A     55 N/A N/A MISG        N/A
UNION VILLAGE*   N/A     54 N/A N/A MISG        N/A
MT. MANSFIELD*   N/A     52 N/A N/A W10G37      N/A

_____LAKE CHAMPLAIN_____


CITY           SKY/WX    TMP DP  RH WIND       PRES   REMARKS
BURTON ISLAND*   N/A     66  57  72 SE24        N/A
COLCHESTER RF*   N/A     64  57  77 S30         N/A
DIAMOND ISL*     N/A     63  55  77 SE20        N/A

$$

NYZ007-026>031-035-052-083-210800-
_____NORTHERN NEW YORK_____


CITY           SKY/WX    TMP DP  RH WIND       PRES   REMARKS
PLATTSBURGH    MOSUNNY   63  57  81 S16       29.81F
SARANAC LAKE   MOSUNNY   62  55  77 SW13      29.84F
MASSENA        CLOUDY    69  58  67 S15G23    29.73F
OGDENSBURG*    MOSUNNY   66  59  77 S12       29.72F
POTSDAM*       MOSUNNY   68  61  77 SW15G23   29.73F
PARISHVILLE*     N/A     64 N/A N/A S22         N/A
WATERTOWN      PTSUNNY   70  55  59 S13G29    29.75F
FT DRUM        MOSUNNY   67  55  66 S21G35    29.76F
ALBANY         SUNNY     63  58  83 S8        29.95F
GLENS FALLS    MOSUNNY   55  53  93 CALM      29.94F

$$
NHZ002-005-011-210800-
_____NEW HAMPSHIRE_____


CITY           SKY/WX    TMP DP  RH WIND       PRES   REMARKS
LEBANON        MOSUNNY   56  51  84 VRB3      29.97F
KEENE          CLOUDY    63  54  72 S9        29.99F
MT WASHINGTON  FOG       45  45 100 W60         N/A  VSB 0
PLYMOUTH       CLOUDY    50  50 100 CALM      29.99F FOG
WHITEFIELD     CLOUDY    58  54  86 CALM      29.96F

$$

_____REGIONAL QUEBEC LOCATIONS_____


CITY           SKY/WX    TMP DP  RH WIND       PRES   REMARKS
MONTREAL       PTSUNNY   63  57  82 SE15      29.74F
QUEBEC CITY    CLOUDY    59  57  94 W5        29.77F
SHERBROOKE     MOSUNNY   63  55  77 S12G23    29.86F

_____REGIONAL ONTARIO LOCATIONS_____


CITY           SKY/WX    TMP DP  RH WIND       PRES   REMARKS
OTTAWA         CLOUDY    64  61  88 S9G17     29.68F

______KEY______
VSB  - VISIBILITY IN MILES
WCI  - WIND CHILL INDEX
HX   - HEAT INDEX
$$



USA.gov is the U.S. government's official web portal to all federal, state and local government web resources and services.